This is the latest recevied weather packets stored in our database for station/object KJ5EHN. If no packets are shown the sender has not sent any weather packets the latest 10 day(s).
| Time | Temp. | Humidity | Pressure | Rain* | Wind** | Luminosity | Snow |
|---|---|---|---|---|---|---|---|
| 1778248644 | 16.11° C | 96% | 1014.7 hPa | 0 mm | - | - | - |
| 1778248340 | 16.11° C | 96% | 1015 hPa | 1.78 mm | - | - | - |
| 1778248035 | 15.56° C | 96% | 1014.8 hPa | 12.7 mm | - | - | - |
| 1778247733 | 15.56° C | 95% | 1014.9 hPa | 11.94 mm | - | - | - |
| 1778247430 | 15.56° C | 95% | 1014.9 hPa | 0 mm | - | - | - |
| 1778247127 | 15.56° C | 96% | 1014.7 hPa | 0 mm | - | - | - |
| 1778246825 | 15.56° C | 95% | 1014.5 hPa | 4.83 mm | - | - | - |
| 1778246522 | 15° C | 95% | 1014.3 hPa | 16.76 mm | - | - | - |
| 1778246217 | 15.56° C | 94% | 1014.4 hPa | 10.67 mm | - | - | - |
| 1778245914 | 15° C | 92% | 1015.1 hPa | 0 mm | - | - | - |
| 1778245611 | 15° C | 93% | 1014.8 hPa | 0 mm | - | - | - |
| 1778245308 | 15° C | 94% | 1014.6 hPa | 0 mm | - | - | - |
| 1778245003 | 15° C | 94% | 1014.8 hPa | 0 mm | - | - | - |
| 1778244700 | 15° C | 94% | 1014.8 hPa | 1.78 mm | - | - | - |
| 1778244398 | 15° C | 94% | 1014.4 hPa | 1.78 mm | - | - | - |
| 1778244095 | 15° C | 93% | 1014.4 hPa | 0 mm | - | - | - |
| 1778243794 | 15° C | 93% | 1014.9 hPa | 1.27 mm | - | - | - |
| 1778243491 | 15° C | 93% | 1015.2 hPa | 1.78 mm | - | - | - |
| 1778243187 | 15° C | 92% | 1014.9 hPa | 4.83 mm | - | - | - |
| 1778242884 | 15.56° C | 91% | 1015.7 hPa | 1.78 mm | - | - | - |
| 1778242582 | 15.56° C | 91% | 1015 hPa | 0 mm | - | - | - |
| 1778242280 | 15.56° C | 91% | 1015 hPa | 0 mm | - | - | - |
| 1778241977 | 15.56° C | 91% | 1014.8 hPa | 0 mm | - | - | - |
| 1778241676 | 15.56° C | 91% | 1014.3 hPa | 0 mm | - | - | - |
| 1778241373 | 15.56° C | 91% | 1014.9 hPa | 0 mm | - | - | - |
* Rain latest hour (hover to see other rain measurements)
** Current wind speed in m/s (hover to see current wind gust speed)